TimeCDT,TemperatureF,Dew PointF,Humidity,Sea Level PressureIn,VisibilityMPH,Wind Direction,Wind SpeedMPH,Gust SpeedMPH,PrecipitationIn,Events,Conditions,WindDirDegrees,DateUTC
12:15 AM,63.0,44.1,50,29.99,10.0,South,8.1,-,N/A,,Clear,180,2013-10-09 05:15:00
12:35 AM,62.1,44.2,52,29.99,10.0,South,6.9,-,N/A,,Clear,190,2013-10-09 05:35:00
12:55 AM,61.3,44.4,54,29.99,10.0,SSW,5.8,-,N/A,,Clear,200,2013-10-09 05:55:00
1:15 AM,60.1,44.6,57,29.99,10.0,South,4.6,-,N/A,,Clear,180,2013-10-09 06:15:00
1:35 AM,58.8,44.6,59,29.99,10.0,South,4.6,-,N/A,,Clear,190,2013-10-09 06:35:00
1:55 AM,58.8,44.6,59,29.99,10.0,South,4.6,-,N/A,,Clear,190,2013-10-09 06:55:00
2:15 AM,58.1,44.6,61,29.99,10.0,South,5.8,-,N/A,,Clear,190,2013-10-09 07:15:00
2:35 AM,57.2,44.6,63,29.99,10.0,SSW,3.5,-,N/A,,Clear,200,2013-10-09 07:35:00
2:55 AM,57.2,44.8,63,29.99,10.0,SSW,3.5,-,N/A,,Clear,210,2013-10-09 07:55:00
3:15 AM,56.3,44.8,65,29.99,10.0,SSW,4.6,-,N/A,,Clear,200,2013-10-09 08:15:00
3:35 AM,55.9,44.6,66,29.99,10.0,SSW,4.6,-,N/A,,Clear,200,2013-10-09 08:35:00
3:55 AM,55.8,44.6,66,29.99,10.0,SSW,4.6,-,N/A,,Clear,200,2013-10-09 08:55:00
4:15 AM,55.4,44.6,67,29.99,10.0,South,4.6,-,N/A,,Clear,190,2013-10-09 09:15:00
4:35 AM,54.7,44.6,69,29.99,10.0,South,3.5,-,N/A,,Clear,180,2013-10-09 09:35:00
4:55 AM,54.7,44.6,69,29.99,10.0,South,3.5,-,N/A,,Clear,190,2013-10-09 09:55:00
5:15 AM,54.3,44.6,70,29.99,10.0,SSW,3.5,-,N/A,,Clear,200,2013-10-09 10:15:00
5:35 AM,54.5,44.6,69,30.00,10.0,SSW,4.6,-,N/A,,Clear,210,2013-10-09 10:35:00
5:55 AM,53.6,44.6,72,30.00,10.0,SSW,4.6,-,N/A,,Clear,210,2013-10-09 10:55:00
6:15 AM,52.7,44.6,74,30.01,10.0,SSW,4.6,-,N/A,,Clear,210,2013-10-09 11:15:00
6:35 AM,52.9,44.6,73,30.01,10.0,SSW,4.6,-,N/A,,Clear,210,2013-10-09 11:35:00
6:55 AM,53.1,44.6,73,30.02,10.0,SSW,3.5,-,N/A,,Clear,210,2013-10-09 11:55:00
7:15 AM,52.9,44.6,73,30.03,10.0,Calm,Calm,-,N/A,,Clear,0,2013-10-09 12:15:00
7:35 AM,52.3,44.6,75,30.03,10.0,South,3.5,-,N/A,,Clear,190,2013-10-09 12:35:00
7:55 AM,52.7,44.6,74,30.04,10.0,South,4.6,-,N/A,,Clear,190,2013-10-09 12:55:00
8:15 AM,54.7,45.5,71,30.04,10.0,South,4.6,-,N/A,,Clear,190,2013-10-09 13:15:00
8:35 AM,57.2,46.6,68,30.05,10.0,South,3.5,-,N/A,,Clear,170,2013-10-09 13:35:00
8:55 AM,59.2,47.3,65,30.05,10.0,SSE,4.6,-,N/A,,Clear,160,2013-10-09 13:55:00
9:15 AM,61.2,48.4,63,30.06,10.0,North,-9999.0,-,N/A,,Clear,0,2013-10-09 14:15:00
9:35 AM,64.0,49.5,59,30.06,10.0,South,8.1,-,N/A,,Clear,190,2013-10-09 14:35:00
9:55 AM,66.0,50.2,57,30.07,10.0,South,13.8,17.3,N/A,,Clear,190,2013-10-09 14:55:00
10:15 AM,67.5,50.4,54,30.07,10.0,South,10.4,18.4,N/A,,Clear,190,2013-10-09 15:15:00
10:35 AM,68.7,50.2,52,30.07,10.0,South,12.7,19.6,N/A,,Clear,180,2013-10-09 15:35:00
10:55 AM,70.9,51.1,49,30.07,10.0,SSW,15.0,-,N/A,,Clear,200,2013-10-09 15:55:00
11:15 AM,72.7,50.9,46,30.07,10.0,South,12.7,-,N/A,,Clear,190,2013-10-09 16:15:00
11:35 AM,74.3,51.1,44,30.06,10.0,South,15.0,-,N/A,,Clear,170,2013-10-09 16:35:00
11:55 AM,75.4,50.2,41,30.06,10.0,South,15.0,-,N/A,,Clear,180,2013-10-09 16:55:00
12:15 PM,77.0,50.4,39,30.06,10.0,SSE,15.0,19.6,N/A,,Clear,160,2013-10-09 17:15:00
12:35 PM,78.1,48.7,36,30.05,10.0,South,12.7,20.7,N/A,,Clear,170,2013-10-09 17:35:00
12:55 PM,79.9,48.2,33,30.03,10.0,South,16.1,21.9,N/A,,Clear,190,2013-10-09 17:55:00
1:15 PM,80.2,47.7,32,30.03,10.0,South,16.1,21.9,N/A,,Clear,190,2013-10-09 18:15:00
1:35 PM,81.1,47.7,31,30.01,10.0,South,16.1,20.7,N/A,,Clear,190,2013-10-09 18:35:00
1:55 PM,81.5,47.5,30,30.00,10.0,SSE,12.7,20.7,N/A,,Clear,150,2013-10-09 18:55:00
2:15 PM,81.9,47.1,30,29.99,10.0,South,13.8,21.9,N/A,,Clear,170,2013-10-09 19:15:00
2:35 PM,82.4,47.5,29,29.98,10.0,SSE,16.1,19.6,N/A,,Clear,160,2013-10-09 19:35:00
2:55 PM,82.9,48.9,31,29.98,10.0,South,15.0,-,N/A,,Clear,170,2013-10-09 19:55:00
3:15 PM,83.7,49.1,30,29.97,10.0,South,12.7,18.4,N/A,,Clear,170,2013-10-09 20:15:00
3:55 PM,84.9,47.7,27,29.96,10.0,SSE,15.0,-,N/A,,Clear,160,2013-10-09 20:55:00
4:15 PM,85.1,47.5,27,29.95,10.0,SSE,13.8,20.7,N/A,,Clear,160,2013-10-09 21:15:00
4:35 PM,84.7,47.5,27,29.95,10.0,SSE,13.8,19.6,N/A,,Clear,150,2013-10-09 21:35:00
4:55 PM,84.4,47.3,27,29.95,10.0,South,13.8,-,N/A,,Clear,170,2013-10-09 21:55:00
5:15 PM,84.2,47.5,28,29.95,10.0,SSE,13.8,19.6,N/A,,Clear,160,2013-10-09 22:15:00
5:35 PM,83.7,47.5,28,29.95,10.0,SE,11.5,-,N/A,,Clear,140,2013-10-09 22:35:00
5:55 PM,83.3,47.5,29,29.95,10.0,SSE,12.7,18.4,N/A,,Clear,150,2013-10-09 22:55:00
6:15 PM,82.4,47.1,29,29.95,10.0,SSE,12.7,-,N/A,,Clear,160,2013-10-09 23:15:00
6:55 PM,79.7,47.3,32,29.95,10.0,SSE,8.1,-,N/A,,Clear,150,2013-10-09 23:55:00
7:15 PM,77.5,47.3,34,29.96,10.0,SSE,8.1,-,N/A,,Clear,150,2013-10-10 00:15:00
7:35 PM,75.0,47.7,38,29.96,10.0,SSE,6.9,-,N/A,,Clear,150,2013-10-10 00:35:00
7:55 PM,74.1,47.3,38,29.96,10.0,SSE,8.1,-,N/A,,Clear,150,2013-10-10 00:55:00
8:15 PM,73.2,48.0,41,29.97,10.0,SE,9.2,-,N/A,,Clear,140,2013-10-10 01:15:00
8:35 PM,73.6,49.1,42,29.97,10.0,SSE,11.5,-,N/A,,Clear,150,2013-10-10 01:35:00
8:55 PM,73.2,49.1,42,29.98,10.0,SSE,10.4,-,N/A,,Clear,150,2013-10-10 01:55:00
9:15 PM,72.5,49.5,44,29.98,10.0,SE,10.4,-,N/A,,Clear,140,2013-10-10 02:15:00
9:35 PM,72.1,50.5,46,29.98,10.0,SE,12.7,-,N/A,,Clear,140,2013-10-10 02:35:00
9:55 PM,71.6,51.6,49,29.99,10.0,SE,15.0,-,N/A,,Clear,140,2013-10-10 02:55:00
10:15 PM,71.6,52.3,51,30.00,10.0,SSE,11.5,-,N/A,,Clear,150,2013-10-10 03:15:00
10:35 PM,71.1,52.7,52,30.00,10.0,SSE,11.5,-,N/A,,Clear,150,2013-10-10 03:35:00
10:55 PM,70.7,52.7,53,30.01,10.0,SSE,11.5,-,N/A,,Clear,160,2013-10-10 03:55:00
11:15 PM,69.8,52.9,55,30.01,10.0,SSE,10.4,-,N/A,,Clear,160,2013-10-10 04:15:00
11:55 PM,68.2,53.2,59,30.01,10.0,South,8.1,-,N/A,,Clear,170,2013-10-10 04:55:00